Location: Seattle
(47.6064°N, 122.3308°W)
Time: 03:12:16
(UTC-08:00)

N. Korean satellite - Pass Details

Date: 03 November 2020
Orbit: 453 x 503 km, 97.2° (Epoch: 03 December)

Event Time Altitude Azimuth Distance (km) Brightness Sun altitude
Rises 17:30:09 0° 194° (SSW) 2,516 10.6 -7.6°
Reaches altitude 10° 17:32:29 10° 208° (SSW) 1,634 9.9 -8.0°
Maximum altitude 17:35:24 24° 265° (W) 1,002 9.3 -8.5°
Drops below altitude 10° 17:38:18 10° 322° (NW) 1,624 9.6 -9.0°
Sets 17:40:37 0° 336° (NNW) 2,497 10.3 -9.3°
